Location: Saint-Usage
(47.1052°N, 5.2587°E)
Time: 13:31:25
(UTC+01:00)

ISS - Visible Passes

Search period start: 03 December 2022 00:00
Search period end: 13 December 2022 00:00
Orbit: 414 x 420 km, 51.6° (Epoch: 03 December)

Date Brightness Start Highest point End Pass type
(mag) Time Alt. Az. Time Alt. Az. Time Alt. Az.
03 Dec -3.7 17:51:15 10° WNW 17:54:34 61° NNE 17:57:24 13° E visible
03 Dec -1.6 19:28:14 10° W 19:30:21 25° WSW 19:30:21 25° WSW visible
04 Dec -2.8 18:39:57 10° WNW 18:43:10 44° SSW 18:44:44 24° SSE visible
05 Dec -3.5 17:51:44 10° WNW 17:55:04 69° SSW 17:58:24 10° SE visible
05 Dec -0.7 19:29:51 10° WSW 19:31:18 12° SW 19:32:22 11° SSW visible
06 Dec -1.1 18:40:52 10° W 18:43:20 19° SW 18:45:49 10° S visible
07 Dec -1.7 17:52:20 10° W 17:55:18 30° SW 17:58:16 10° SSE visible
09 Dec -0.4 17:53:39 10° WSW 17:55:16 13° SW 17:56:52 10° SSW visible
